Torna al catalogo

STARLINK-36871

AttivoComunicazioniSSO
NORAD 68023·PAYLOAD·🇺🇸 United States

Lanciato Mar 1, 2026 da Vandenberg Space Force Base

Loading…

Prossimi Passaggi (prossime 24 ore)

TLE

AggiornatoSource: CelesTrak SupGP

Epoca: Sep 15, 2026, 03:56 UTC

1 68023C 26040J   26258.16437500  .00070212  00000+0  21799-2 0  2589
2 68023  97.2857 205.5430 0001806  98.7104  53.5072 15.33397211    10

Traccia STARLINK-36871 in tempo reale con AllMySat

Download on the App Store